#timestamp,LO_Frequency,Hit,StdDev 
1529215215.6,286046998.4,N
1529215235.4,286047001.1,N
1529215255.3,286046999.0,N
1529215275.1,286046996.9,N
1529215295.8,286046997.2,N
1529215315.7,286046996.7,N
1529215335.5,286046998.7,N
1529215355.4,286047000.2,N
1529215375.2,286046998.3,N
1529215395.0,286046999.6,N
1529215395.9,286046999.6,N
1529215415.8,286046998.9,N
1529215435.6,286046996.5,N
1529215455.5,286046998.5,N
1529215475.3,286046996.8,N
1529215495.1,286046999.0,N
1529215515.9,286046999.3,N
1529215535.7,286046997.9,N
1529215555.5,286046996.8,N
1529215575.4,286046997.0,N
1529215595.2,286046997.4,N
1529215615.1,286046997.1,N
1529215616.0,286046997.1,N
1529215635.8,286046995.0,Y
1529215655.6,286046999.1,P
1529215675.5,286046997.8,P
1529215695.3,286046998.4,P
1529215715.1,286046999.5,N
1529215735.9,286046996.5,Y
1529215755.7,286046999.6,P
1529215775.6,286046999.5,N
1529215795.4,286046998.2,P
1529215815.3,286047000.3,N
1529215835.1,286047000.6,N
1529215836.0,286047000.6,N
1529215855.8,286047000.2,N
1529215875.7,286047000.7,N
1529215895.5,286046998.4,N
1529215915.3,286047000.7,N
1529215935.2,286046998.3,N
1529215955.0,286046998.4,N
1529215955.9,286046998.4,N
1529215975.8,286046998.7,N
1529215995.6,286046999.1,N
1529216015.4,286047001.2,N
1529216035.3,286046999.1,N
1529216055.1,286046997.0,Y
1529216075.9,286046998.1,P
1529216095.7,286047000.5,N
1529216115.5,286047000.5,N
1529216135.4,286046999.2,N
1529216155.2,286046999.1,N
1529216175.0,286047000.3,N
1529216175.9,286047000.3,N
1529216195.8,286046998.1,N
1529216215.6,286046998.2,N
1529216235.5,286047001.2,N
1529216255.3,286047000.3,N
1529216275.1,286047001.2,N
1529216295.9,286046998.1,N
1529216315.7,286047000.2,N
1529216335.5,286046999.0,N
1529216355.4,286046998.8,N
1529216375.2,286046998.8,N
1529216395.1,286047000.1,N
1529216396.0,286047000.1,N
1529216415.8,286046999.0,N
1529216435.6,286046998.9,N
1529216455.5,286047000.7,N
1529216475.3,286046998.5,N
1529216495.2,286046996.5,Y
1529216515.9,286046998.5,P
1529216535.7,286046998.9,N
1529216555.6,286046999.0,N
1529216575.4,286046999.3,N
1529216595.2,286046999.3,N
1529216615.1,286046999.0,Y
1529216616.0,286046999.0,P
1529216635.8,286046999.0,P
1529216655.7,286046998.9,P
1529216675.5,286046998.9,Y
1529216695.3,286046998.8,P
1529216715.2,286046999.3,P
1529216735.0,286046998.9,P
1529216735.9,286046998.9,Y
1529216755.7,286047000.7,P
1529216775.6,286047000.6,N
1529216795.4,286046998.6,N
1529216815.3,286047000.9,N
1529216835.1,286047000.6,N
1529216836.0,286047000.6,N
1529216855.8,286047001.1,N
1529216875.7,286047000.6,N
1529216895.5,286047000.3,N
1529216915.4,286047002.4,Y
1529216935.2,286047002.4,P
1529216955.0,286047000.5,N
1529216955.9,286047000.5,N
1529216975.8,286047000.6,N
1529216995.6,286047001.2,N
1529217015.4,286047000.9,N
1529217035.3,286047000.1,N
1529217055.1,286047000.8,N
1529217075.9,286047000.1,N
1529217095.7,286047000.2,N
1529217115.5,286047000.4,N
1529217135.4,286047002.3,Y
1529217155.2,286047000.1,P
1529217175.1,286046998.2,P
1529217176.0,286046998.2,N
1529217195.8,286047000.5,N
1529217215.6,286047000.2,N
1529217235.5,286047001.7,N
1529217255.3,286047002.3,N
1529217275.1,286047002.4,N
1529217295.9,286047000.0,N
1529217315.7,286047002.5,N
1529217335.5,286046999.8,N
1529217355.4,286047000.2,N
1529217375.2,286047002.4,N
1529217395.1,286047002.8,N
1529217396.0,286047002.8,N
1529217415.8,286047000.2,N
1529217435.6,286046999.8,N
1529217455.5,286047000.1,N
1529217475.3,286047000.2,N
1529217495.1,286047000.0,N
1529217515.9,286046999.9,N
1529217535.7,286047002.0,N
1529217555.6,286047002.6,N
1529217575.4,286047001.3,N
1529217595.2,286047001.4,N
1529217615.1,286047002.2,N
1529217616.0,286047002.2,N
1529217635.8,286047002.7,N
1529217655.6,286047001.9,N
1529217675.5,286047001.3,N
1529217695.3,286047004.4,Y
1529217715.2,286047003.9,P
1529217735.0,286046999.7,N
1529217735.9,286046999.7,N
1529217755.7,286047002.5,N
1529217775.6,286047001.9,N
1529217795.4,286047001.4,N
1529217815.3,286047003.9,N
1529217835.1,286047004.3,N
1529217836.0,286047004.3,N
1529217855.8,286047002.3,N
1529217875.7,286047002.6,N
1529217895.7,286047002.6,N
1529217915.5,286047002.0,N
1529217935.4,286047004.0,N
1529217955.2,286047001.8,N
1529217975.0,286047003.9,N
1529217975.9,286047003.9,N
1529217995.8,286047001.4,N
1529218015.6,286047001.8,N
1529218035.4,286047001.5,N
1529218055.3,286047001.8,N
1529218075.1,286047001.9,N
1529218095.9,286047001.4,N
1529218115.7,286047003.0,N
1529218135.5,286047003.6,N
1529218155.4,286047003.6,N
1529218175.2,286047004.4,Y
1529218195.0,286047000.8,P
1529218195.9,286047000.8,N
1529218215.8,286047000.1,N
1529218235.6,286047002.5,N
1529218255.5,286047000.5,N
1529218275.3,286047000.2,N
1529218295.1,286047000.5,N
1529218315.9,286047000.5,N
1529218335.7,286047000.3,N
1529218355.5,286046999.7,N
1529218375.4,286047000.2,N
1529218395.2,286046999.8,N
1529218415.1,286047000.4,N
1529218416.0,286047000.4,N
1529218435.8,286046998.3,N
1529218455.6,286047001.2,N
1529218475.5,286046998.5,N
1529218495.3,286047001.2,N
1529218515.1,286047001.2,N
1529218535.9,286047000.6,N
1529218555.7,286047000.3,N
1529218575.6,286047000.9,N
1529218595.4,286046999.8,N
1529218615.2,286047000.5,N
1529218635.1,286047001.0,N
1529218636.0,286047001.0,N
1529218655.8,286047000.4,N
1529218675.7,286047002.1,N
1529218695.5,286047000.0,N
1529218715.3,286047000.1,N
1529218735.2,286047000.7,N
1529218755.0,286047001.1,N
1529218755.9,286047001.1,N
1529218775.8,286047000.7,N
1529218795.6,286047000.4,N
